Regional Weather Roundup
Issued by NWS

Home | Current Version | Previous Version | Graphics & Text | Print | Product List | Glossary On
Versions: 1 2 3 4 5 6 7 8 9 10 11 12 13 14 15 16 17 18 19 20 21 22 23 24 25 26 27
000
ASUS45 KBOI 162010
RWRID

IDAHO REGIONAL WEATHER ROUNDUP
NATIONAL WEATHER SERVICE BOISE ID
100 PM MST MON JAN 16 2017

NOTE: "FAIR" INDICATES FEW OR NO CLOUDS BELOW 12000 FEET
WITH NO SIGNIFICANT WEATHER AND/OR OBSTRUCTIONS TO VISIBILITY

IDZ012-014-162100-
SOUTHWEST IDAHO


CITY           SKY/WX    TMP DP  RH WIND       PRES   REMARKS
BOISE          SUNNY     10   5  80 S5        30.46F WCI   2
CALDWELL       SUNNY     22  14  71 CALM      30.52F HAZE
MOUNTAIN HOME  SUNNY      8   8  99 SE6       30.44F WCI  -2
$$

IDZ016-017-162100-
SOUTHCENTRAL IDAHO


CITY           SKY/WX    TMP DP  RH WIND       PRES   REMARKS
BURLEY         SUNNY     17  11  77 VRB3      30.32F
JEROME         SUNNY     12   7  80 NE10      30.34F WCI  -1
TWIN FALLS     SUNNY     18  14  84 NE5       30.33F WCI  11
$$

IDZ019>023-162100-
SOUTHEAST IDAHO


CITY           SKY/WX    TMP DP  RH WIND       PRES   REMARKS
IDAHO FALLS    CLOUDY     1  -3  83 N5        30.34F WCI  -9
POCATELLO      CLOUDY     7   1  76 W3        30.35F
REXBURG        CLOUDY     4  -3  73 NE6       30.31F WCI  -7
$$

IDZ006-010-011-018-031-032-162100-
CENTRAL IDAHO MOUNTAINS


CITY           SKY/WX    TMP DP  RH WIND       PRES   REMARKS
MCCALL         MOSUNNY    8   3  80 S3        30.24F
HAILEY         MOSUNNY   12   3  67 E5        30.27F WCI   4
STANLEY          N/A     -2  -9  72 CALM      30.26F
SALMON         CLOUDY    -9  -9 100 CALM      30.51F
CHALLIS        SUNNY     -9 -18  64 CALM      30.38F
$$

IDZ002-004-006-007-026-162100-
NORTHERN IDAHO


CITY           SKY/WX    TMP DP  RH WIND       PRES   REMARKS
LEWISTON       MOSUNNY   12   7  80 NW5       30.41F WCI   4
LOWELL           N/A     24  14  65 VRB6      30.43F WCI  17
COEUR D`ALENE  CLOUDY    21  18  88 NE9       30.33F WCI  11
MULLAN PASS    MOSUNNY   23  17  78 S8        30.14F WCI  14
$$




USA.gov is the U.S. government's official web portal to all federal, state and local government web resources and services.